Location: Unspecified
(49.2170°N, 0.0000°E)
Time: 00:16:54
(UTC+00:00)

Explorer 7 - Pass Details

Date: 30 January 2021
Orbit: 484 x 677 km, 50.3° (Epoch: 06 March)

Event Time Altitude Azimuth Distance (km) Brightness Sun altitude
Exits shadow 06:37:27 13° 283° (WNW) 1,562 8.4 -9.4°
Maximum altitude 06:40:56 78° 198° (SSW) 546 6.8 -8.8°
Drops below altitude 10° 06:45:05 10° 112° (ESE) 1,831 11.2 -8.2°
Sets 06:47:24 0° 111° (ESE) 2,760 13.0 -7.8°
